Home   Weather   Jeddah   Past weeks

Flag for Saudi Arabia Past Weather in Jeddah, Saudi Arabia — Yesterday and Last 2 Weeks

79 °F


Feels Like: 82 °F
Forecast: 85 / 95 °F
Wind: No wind

Location: Jeddah King Abdul Aziz International Airport

Current Time: Oct 26, 2016 at 7:06:39 AM

Latest Report: Oct 26, 2016 at 6:00 AM

Visibility: 10 mi

Pressure: 29.71 "Hg

Humidity: 79%

Dew Point: 72 °F

Location of JeddahLocation

Past Weather in Jeddah — Graph


Jeddah Temperature Yesterday

Maximum temperature yesterday: 91 °F (at 11:00 AM)
Minimum temperature yesterday: 77 °F (at 5:00 AM)
Average temperature yesterday: 85 °F

High & Low Weather Summary for the Past Weeks

High100 °F (Oct 15, 12:00 PM)94% (Oct 21, 6:00 AM)29.89 "Hg (Oct 21, 6:00 AM)
Low75 °F (Oct 23, 6:00 AM)21% (Oct 19, 12:00 PM)29.68 "Hg (Oct 20, 3:00 PM)
Average86 °F64%29.80 "Hg
* Reported Oct 11 6:00 AM — Oct 26 6:00 AM, Jeddah, Weather by CustomWeather, © 2016

Note: Actual official high and low records may vary slightly from our data, if they occured in-between our weather recording intervals... More about our weather records


Jeddah Weather History for the Previous 24 Hours

Scroll right to see more
Time TempWeatherWind HumidityBarometerVisibility
6:00 AM
Wed, Oct 26
79 °FClear.No wind79%29.71 "Hg10 mi
5:00 AM79 °FClear.No wind79%29.68 "Hg10 mi
4:00 AM81 °FClear.No wind70%29.68 "Hg10 mi
3:00 AM81 °FClear.No wind70%29.71 "Hg10 mi
2:00 AM82 °FClear.No wind66%29.71 "Hg10 mi
1:00 AM82 °FClear.No wind66%29.74 "Hg10 mi
12:00 AM82 °FClear.No wind66%29.74 "Hg10 mi
11:00 PM
Tue, Oct 25
84 °FClear.5 mph66%29.74 "Hg10 mi
10:00 PM84 °FClear.3 mph70%29.74 "Hg10 mi
9:00 PM84 °FClear.3 mph70%29.77 "Hg10 mi
8:00 PM86 °FClear.3 mph66%29.74 "Hg10 mi
7:00 PM86 °FClear.3 mph62%29.74 "Hg10 mi
6:00 PM86 °FPassing clouds.6 mph62%29.74 "HgN/A
5:00 PM88 °FPassing clouds.8 mph62%29.71 "HgN/A
4:00 PM88 °FPassing clouds.8 mph59%29.71 "HgN/A
3:00 PM90 °FSunny.14 mph59%29.71 "Hg10 mi
2:00 PM90 °FSunny.14 mph55%29.74 "Hg10 mi
1:00 PM91 °FSunny.14 mph49%29.74 "Hg10 mi
12:00 PM91 °FSunny.12 mph44%29.77 "Hg10 mi
11:00 AM91 °FSunny.6 mph41%29.80 "Hg10 mi
10:00 AM90 °FSunny.No wind49%29.80 "Hg10 mi
9:00 AM86 °FSunny.No wind70%29.80 "Hg10 mi
8:00 AM81 °FSunny.No wind84%29.80 "Hg10 mi
7:00 AM79 °FPassing clouds.No wind84%29.77 "Hg5 mi
Weather by CustomWeather, © 2016

See weather overviewHow to use our weather pages